NOAA 16 DEB, 41198

Orbit data source: Space-Track

NOAA 16 DEB, 41198 is space debris in SSO originally from a launch on Thu, 21 Sep 2000 UTC launched from the Air Force Western Test Range (AFWTR). Debris objects in space refer to the collection of defunct objects orbiting the Earth. Examples of debris include non-operational satellites, rocket bodies, and fragments generated from explosions, collisions, or faulty payload assembly.

Loading next visibility...
Identifier
41198, 2000-055DB
Orbit
SSO
Country
Flag of USUS
Related business
Manufacturer
Unknown
Mission
Spacecraft
Bus & Motor
Unknown
Mass
Unknown
Launch date (UTC)
2000-09-21 (26 years ago)
Launch vehicle
Unknown
Launch site
Air Force Western Test Range (AFWTR)
Object type
Payload
Rocket body
Debris
Shape & HBR
Unknown shape, 0.1 m
Radar Cross Section
Small (<0.1 m²)

Expand to show TLE details & history
Last TLE update: 1 day ago

TLE from 1 day ago
0 NOAA 16 DEB
1 41198U 00055DB  26123.27471133  .00012734  00000-0  36308-2 0  9994
2 41198  98.9109 236.7899 0017832 277.7653  82.1512 14.45251574535306
Epoch: 2026-05-03T06:35Z
TLE epoch observation values (Epoch: 2026-05-03T06:35:35.058Z)
Latitude
-0.00006°
Longitude
-83.28677°
Altitude
742.43 km
Speed
7.485 km/s
True Right ascension
15h 47m 09s
True Declination
0° 00' 00"
Sunlit
Object was in full shadow at epoch
Visualization orbit readout
Latitude
Unknown
Longitude
Unknown
Altitude
Unknown
Speed
Unknown
Apparent Right ascension
Unknown
Apparent Declination
Unknown
Sunlit
N/A
Visualization observer readout
Local Sidereal Time
18:51:57
Azimuth
Unknown
Elevation
Unknown
Doppler factor
Unknown
Orbital elements
Apogee altitude
751.025 km
Perigee altitude
725.645 km
Semi-major axis
7,116.472 km
Eccentricity
0.00178
Inclination
98.9109°
RAAN
236.7899°
Arg. of periapsis
277.7653°
True anomaly
82.35369°
Mean anomaly
82.1512°
Eccentric anomaly
82.25244°
Mean motion
3.61531 °/min
Orbital period
99.58 mins
BSTAR
0.0036308
Loading maneuver chart data...
Computing Atmospheric mass density...
Loading historical data...
Loading historical data...
Loading historical data...
Loading historical data...
Loading historical data...
Loading historical data...
Loading historical data...

Documentation

Showing up to 5 results
|